Change the Weather History Date:

Monday, July 29, 2013

  Actual Average Record
Temperature  
Mean Temperature 61 °F 74 °F  
Max Temperature 68 °F 86 °F 108 °F (1935)
Min Temperature 54 °F 63 °F 45 °F (1899)
Degree Days  
Heating Degree Days 4 0  
Month to date heating degree days 20 0  
Since 1 June heating degree days 70 35  
Since 1 July heating degree days 20 0  
Cooling Degree Days 0 9  
Month to date cooling degree days 279 286  
Year to date cooling degree days 503 496  
Since 1 June cooling degree days 446 456  
Growing Degree Days 11 (Base 50)    
Moisture  
Dew Point 55 °F    
Average Humidity 76    
Maximum Humidity 90    
Minimum Humidity 65    
Precipitation  
Precipitation 0.04 in 0.09 in 3.03 in (2010)
Month to date precipitation 3.84 2.92  
Year to date precipitation 15.93 13.78  
Snow  
Snow 0.00 in - 0.00 in ()
Month to date snowfall 0.0  
Since 1 June snowfall 0.0  
Since 1 July snowfall 0.0  
Snow Depth 0.00 in    
Sea Level Pressure  
Sea Level Pressure 30.03 in    
Wind  
Wind Speed 10 mph (SSE)    
Max Wind Speed 20 mph    
Max Gust Speed 24 mph    
Visibility 10 miles    
Events Rain    
T = Trace of Precipitation, MM = Missing Value Source: NWS Daily Summary

Daily Weather History Graph

Daily Weather History Graph

Search for Another Location

Airport or City:

Trip Planner

Search our weather history database for the weather conditions in past years. The results will help you decide how hot, cold, wet, or windy it might be!

Date:

Astronomy

Jul. 29, 2013 Rise Set
Actual Time 6:18 AM CDT 8:58 PM CDT
Civil Twilight 5:44 AM CDT 9:31 PM CDT
Nautical Twilight 5:03 AM CDT 10:13 PM CDT
Astronomical Twilight 4:15 AM CDT 11:00 PM CDT
Moon 12:05 AM CDT (7/29) 2:18 PM CDT (7/29)
Length of Visible Light 15h 46m
Length of Day
14h 40m
Waning Gibbous, 50% of the Moon is Illuminated
Jul 29
Waning Gibbous
Jul 29
Last Quarter
Aug 6
New
Aug 14
First Quarter
Aug 20
Full

Hourly Weather History & Observations

Time (CDT) Temp. Dew Point Humidity Pressure Visibility Wind Dir Wind Speed Gust Speed Precip Events Conditions
12:53 AM 60.1 °F 50.0 °F 69% 30.04 in 10.0 mi SE 6.9 mph - N/A   Clear
1:53 AM 59.0 °F 48.9 °F 69% 30.04 in 10.0 mi SE 8.1 mph - N/A   Clear
2:53 AM 57.0 °F 48.9 °F 74% 30.03 in 10.0 mi SE 6.9 mph - N/A   Partly Cloudy
3:53 AM 55.9 °F 48.9 °F 77% 30.03 in 10.0 mi SE 5.8 mph - N/A   Clear
4:53 AM 55.0 °F 48.9 °F 80% 30.02 in 10.0 mi SE 5.8 mph - N/A   Clear
5:53 AM 54.0 °F 50.0 °F 86% 30.03 in 10.0 mi ESE 4.6 mph - N/A   Partly Cloudy
6:53 AM 57.9 °F 48.9 °F 72% 30.01 in 10.0 mi SSE 11.5 mph - N/A   Overcast
7:53 AM 60.1 °F 50.0 °F 69% 30.02 in 10.0 mi SE 8.1 mph - 0.00 in   Overcast
8:53 AM 62.1 °F 50.0 °F 65% 30.04 in 10.0 mi South 9.2 mph - N/A   Overcast
9:53 AM 61.0 °F 54.0 °F 78% 30.04 in 8.0 mi SE 6.9 mph - 0.01 in Rain Light Rain
10:53 AM 62.1 °F 55.0 °F 78% 30.04 in 10.0 mi SE 6.9 mph - 0.03 in   Overcast
11:53 AM 64.9 °F 54.0 °F 68% 30.03 in 10.0 mi SSE 10.4 mph - N/A   Overcast
12:53 PM 66.9 °F 55.0 °F 66% 30.03 in 10.0 mi SSE 17.3 mph 20.7 mph N/A   Overcast
1:53 PM 68.0 °F 55.9 °F 65% 30.02 in 10.0 mi SSE 16.1 mph 20.7 mph N/A   Overcast
2:53 PM 66.9 °F 55.9 °F 68% 30.03 in 10.0 mi SSE 12.7 mph - N/A   Overcast
3:36 PM 66.2 °F 57.2 °F 73% 30.04 in 10.0 mi SSE 12.7 mph - N/A   Overcast
3:53 PM 66.0 °F 57.0 °F 73% 30.04 in 10.0 mi SSE 13.8 mph - N/A   Overcast
4:53 PM 64.9 °F 57.9 °F 78% 30.03 in 10.0 mi SSE 16.1 mph - N/A   Overcast
5:53 PM 64.9 °F 59.0 °F 81% 30.02 in 10.0 mi SSE 13.8 mph 19.6 mph N/A   Overcast
6:26 PM 66.2 °F 57.2 °F 73% 30.03 in 10.0 mi SSE 10.4 mph - N/A   Overcast
6:53 PM 66.0 °F 57.9 °F 75% 30.02 in 10.0 mi SSE 12.7 mph - N/A   Overcast
7:53 PM 66.0 °F 57.9 °F 75% 30.02 in 10.0 mi SSE 9.2 mph - N/A   Overcast
8:53 PM 64.9 °F 59.0 °F 81% 30.03 in 10.0 mi SSE 6.9 mph - N/A   Overcast
9:24 PM 64.4 °F 59.0 °F 83% 30.04 in 10.0 mi SE 6.9 mph - N/A   Overcast
9:43 PM 64.4 °F 59.0 °F 83% 30.05 in 10.0 mi SE 8.1 mph - N/A   Overcast
9:53 PM 64.0 °F 59.0 °F 84% 30.04 in 10.0 mi SSE 9.2 mph - N/A   Overcast
10:31 PM 62.6 °F 59.0 °F 88% 30.05 in 10.0 mi SSE 11.5 mph - N/A   Overcast
10:53 PM 63.0 °F 57.9 °F 84% 30.05 in 10.0 mi SSE 10.4 mph - N/A   Mostly Cloudy
11:53 PM 61.0 °F 57.9 °F 90% 30.05 in 10.0 mi SSE 6.9 mph - N/A   Mostly Cloudy